Location: Casa Rossa
(45.2389°N, 12.2056°E)
Time: 23:48:20
(UTC+00:00)

Cosmos 220 Rocket - Pass Details

Date: 14 July 2020
Orbit: 576 x 616 km, 74.0° (Epoch: 14 August)

Event Time Altitude Azimuth Distance (km) Brightness Sun altitude
Rises 00:54:58 0° 337° (NNW) 2,823 8.1 -19.5°
Reaches altitude 10° 00:57:12 10° 336° (NNW) 1,912 7.1 -19.4°
Maximum altitude 01:01:27 78° 250° (WSW) 597 3.8 -19.0°
Enters shadow 01:02:52 41° 172° (S) 851 4.3 -18.9°
